This demonstration page uses our WeatherBlox Daily Observations layout. Learn more.

Left ArrowRight Arrow

Hourly Observations for June 1, 2020

Temp ( °F °C ) Dew Point ( °F °C ) Humidity (%) Winds ( mph kmh ) Pressure ( in mb ) Visibility ( mi km ) Precip ( " mm )
12:56 am 00:56 Cloudy 71 21.7 61 16 70 70 SSE 18 30 30.04 1017 10 16 0.00 0.00
1:56 am 01:56 Cloudy 71 21.4 61 16.3 73 73 SSE 14 22 30.02 1017 10 16 0.00 0.00
2:56 am 02:56 Cloudy 69 20.7 62 16.7 78 78 SSE 14 22 30.01 1016 10 16 0.00 0.00
3:56 am 03:56 Cloudy 71 21.5 62 16.4 73 73 S 15 24 29.99 1016 10 16 0.00 0.00
4:56 am 04:56 Cloudy 71 21.4 61 16.1 72 72 S 9 15 29.99 1016 10 16 0.00 0.00
5:56 am 05:56 Cloudy 70 21 61 16.2 74 74 S 12 19 30.00 1016 10 16 0.00 0.00
6:56 am 06:56 Cloudy 70 21.2 61 16.2 73 73 S 14 22 30.00 1016 10 16 0.00 0.00
7:56 am 07:56 Mostly Sunny 71 21.9 62 16.4 71 71 S 14 22 30.00 1016 10 16 0.00 0.00
8:56 am 08:56 Partly Cloudy 74 23.3 62 16.8 67 67 S 14 22 29.99 1016 10 16 0.00 0.00
9:56 am 09:56 Mostly Sunny 76 24.6 62 16.8 62 62 S 16 26 29.99 1016 10 16 0.00 0.00
10:56 am 10:56 Mostly Sunny 80 26.4 63 17.2 57 57 SSW 15 24 29.98 1015 10 16 0.00 0.00
11:56 am 11:56 Sunny 81 27.3 61 16.2 51 51 S 22 35 29.95 1014 10 16 0.00 0.00
12:56 pm 12:56 Sunny 86 29.8 62 16.9 46 46 S 20 31 29.92 1013 10 16 0.00 0.00
1:56 pm 13:56 Sunny 88 31 62 16.9 43 43 S 15 24 29.90 1012 10 16 0.00 0.00
2:56 pm 14:56 Sunny 89 31.8 62 16.5 40 40 S 21 33 29.89 1012 10 16 0.00 0.00
3:56 pm 15:56 Mostly Sunny 91 32.9 61 16.2 37 37 S 20 31 29.86 1011 10 16 0.00 0.00
4:56 pm 16:56 Sunny 91 32.9 60 15.4 35 35 S 16 26 29.85 1011 10 16 0.00 0.00
5:56 pm 17:56 Sunny 90 32.4 62 16.6 39 39 S 17 28 29.85 1011 10 16 0.00 0.00
6:56 pm 18:56 Sunny 89 31.7 62 16.4 40 40 SSW 13 20 29.85 1011 10 16 0.00 0.00
7:56 pm 19:56 Sunny 87 30.7 62 16.7 43 43 S 14 22 29.85 1011 10 16 0.00 0.00
8:56 pm 20:56 Clear 85 29.2 61 16 45 45 S 13 20 29.88 1012 10 16 0.00 0.00
9:56 pm 21:56 Clear 80 26.8 64 17.5 57 57 S 10 17 29.90 1012 10 16 0.00 0.00
10:56 pm 22:56 Clear 78 25.5 65 18.4 65 65 S 9 15 29.91 1013 10 16 0.00 0.00
11:56 pm 23:56 Clear 76 24.4 65 18.3 69 69 S 10 17 29.92 1013 10 16 0.00 0.00

Powered by AerisWeather